Retour au catalogue

STARLINK-4098

ActifCommunicationsVLEO
NORAD 53153·PAYLOAD·🇺🇸 United States

Lancé Jul 17, 2022 depuis Cape Canaveral Space Force Station

Loading…

Prochains Passages (prochaines 24 heures)

TLE

FraisSource: CelesTrak SupGP

Époque: Sep 15, 2026, 02:31 UTC

1 53153C 22083X   26258.10534722 -.00009461  00000+0 -27960-3 0  2585
2 53153  53.1597  28.6577 0001180  82.3226  49.7431 15.34386535    19

Suivez STARLINK-4098 en temps réel avec AllMySat

Download on the App Store